{"data":{"norad_id":66169,"intl_designator":"2025-240Z","name":"STARLINK-35638","alt_names":[],"object_type":"PAYLOAD","status":"ACTIVE","operator":null,"country":"US","launch_date":"2025-10-25","launch_site_code":"AFWTR","launch_vehicle":null,"mission":null,"orbit_class":"UNKNOWN","rcs_meters":null,"size_class":null,"mass_kg":null,"dimensions":null,"purposes":["comms"],"wikipedia_slug":null,"has_3d_model":false,"image_url":null,"decayed_at":null,"tle_current":{"epoch":"2026-05-25T02:07:21.802656Z","epoch_age_seconds":70674,"freshness":"FRESH","line1":"1 66169U 25240Z   26145.08844679  .00017559  00000+0  60353-3 0  9991","line2":"2 66169  53.1576  68.0605 0001035  78.8476 281.2641 15.30202134 33686","mean_motion":15.30202134,"eccentricity":0.0001035,"inclination_deg":53.1576,"raan_deg":68.0605,"arg_perigee_deg":78.8476,"mean_anomaly_deg":281.2641,"bstar":0.00060353,"rev_number":3368,"period_min":94.105214468352,"perigee_km":474.49937640767,"apogee_km":475.9180189671,"semimajor_km":6853.3456976874,"source":"CELESTRAK","updated_at":"2026-05-25T13:38:21.073798Z"}}}